Time,TemperatureF,DewpointF,PressureIn,WindDirection,WindDirectionDegrees,WindSpeedMPH,WindSpeedGustMPH,Humidity,HourlyPrecipIn,Conditions,Clouds,dailyrainin,SoftwareType,DateUTC
2013-03-16 00:02:00,56.1,37.8,17.72,NNW,336,5.8,8.3,50,0.00,,---,0.00,VWS V14.00,2013-03-16 05:02:00,
2013-03-16 00:07:00,57.2,37.7,17.72,NNW,334,5.8,7.6,48,0.00,,---,0.00,VWS V14.00,2013-03-16 05:07:00,
2013-03-16 00:12:00,57.6,37.5,17.72,North,353,4.9,6.7,47,0.00,,---,0.00,VWS V14.00,2013-03-16 05:12:00,
2013-03-16 00:17:00,57.4,37.9,17.72,North,357,4.5,4.5,48,0.00,,---,0.00,VWS V14.00,2013-03-16 05:17:00,
2013-03-16 00:22:00,57.2,38.2,17.72,North,2,6.7,6.7,49,0.00,,---,0.00,VWS V14.00,2013-03-16 05:22:00,
2013-03-16 00:27:00,56.8,38.4,17.72,North,1,4.9,8.3,50,0.00,,---,0.00,VWS V14.00,2013-03-16 05:27:00,
2013-03-16 00:32:00,56.3,38.4,17.72,NW,318,5.4,6.3,51,0.00,,---,0.00,VWS V14.00,2013-03-16 05:32:00,
2013-03-16 00:37:00,55.9,38.6,17.72,North,7,5.8,6.3,52,0.00,,---,0.00,VWS V14.00,2013-03-16 05:37:00,
2013-03-16 00:42:00,55.4,38.6,17.72,North,8,5.8,6.3,53,0.00,,---,0.00,VWS V14.00,2013-03-16 05:42:00,
2013-03-16 00:47:00,55.2,38.9,17.72,NNE,21,8.7,8.7,54,0.00,,---,0.00,VWS V14.00,2013-03-16 05:47:00,
2013-03-16 00:53:00,54.9,38.5,17.72,NNE,15,4.0,7.2,54,0.00,,---,0.00,VWS V14.00,2013-03-16 05:53:00,
2013-03-16 00:58:00,54.7,38.4,17.72,NW,310,3.1,6.3,54,0.00,,---,0.00,VWS V14.00,2013-03-16 05:58:00,
2013-03-16 01:03:00,54.3,38.5,17.72,NW,326,4.0,5.4,55,0.00,,---,0.00,VWS V14.00,2013-03-16 06:03:00,
2013-03-16 01:08:00,54.1,38.3,17.72,North,353,2.7,3.1,55,0.00,,---,0.00,VWS V14.00,2013-03-16 06:08:00,
2013-03-16 01:13:00,53.8,38.9,17.72,North,353,4.0,5.4,57,0.00,,---,0.00,VWS V14.00,2013-03-16 06:13:00,
2013-03-16 01:18:00,53.4,39.0,17.72,NW,326,5.4,5.4,58,0.00,,---,0.00,VWS V14.00,2013-03-16 06:18:00,
2013-03-16 01:23:00,53.2,39.3,17.72,North,353,3.6,4.0,59,0.00,,---,0.00,VWS V14.00,2013-03-16 06:23:00,
2013-03-16 01:28:00,53.1,39.1,17.72,NNW,339,2.7,4.0,59,0.00,,---,0.00,VWS V14.00,2013-03-16 06:28:00,
2013-03-16 01:33:00,52.7,39.2,17.72,NNW,332,0.0,3.6,60,0.00,,---,0.00,VWS V14.00,2013-03-16 06:33:00,
2013-03-16 01:38:00,52.5,39.9,17.72,North,11,7.2,7.2,62,0.00,,---,0.00,VWS V14.00,2013-03-16 06:38:00,
2013-03-16 01:43:00,52.3,40.1,17.72,NNW,345,6.3,7.6,63,0.00,,---,0.00,VWS V14.00,2013-03-16 06:43:00,
2013-03-16 01:48:00,52.2,40.0,17.72,North,353,7.6,7.6,63,0.00,,---,0.00,VWS V14.00,2013-03-16 06:48:00,
2013-03-16 01:53:00,52.0,40.2,17.72,NNW,343,11.0,11.0,64,0.00,,---,0.00,VWS V14.00,2013-03-16 06:53:00,
2013-03-16 01:58:00,51.8,40.4,17.72,NNW,338,4.0,4.0,65,0.00,,---,0.00,VWS V14.00,2013-03-16 06:58:00,
2013-03-16 02:03:00,51.6,40.2,17.72,North,353,3.1,6.3,65,0.00,,---,0.00,VWS V14.00,2013-03-16 07:03:00,
2013-03-16 02:08:00,51.4,40.5,17.72,North,353,11.4,11.4,66,0.00,,---,0.00,VWS V14.00,2013-03-16 07:08:00,
2013-03-16 02:13:00,51.3,40.7,17.72,NNE,15,6.3,6.3,67,0.00,,---,0.00,VWS V14.00,2013-03-16 07:13:00,
2013-03-16 02:18:00,51.1,40.5,17.72,NNW,342,2.7,8.7,67,0.00,,---,0.00,VWS V14.00,2013-03-16 07:18:00,
2013-03-16 02:23:00,51.1,40.5,17.72,North,357,7.6,7.6,67,0.00,,---,0.00,VWS V14.00,2013-03-16 07:23:00,
2013-03-16 02:28:00,50.9,40.3,17.72,North,357,7.2,8.3,67,0.00,,---,0.00,VWS V14.00,2013-03-16 07:28:00,
2013-03-16 02:33:00,50.9,40.3,17.72,NNE,20,7.6,7.6,67,0.00,,---,0.00,VWS V14.00,2013-03-16 07:33:00,
2013-03-16 02:38:00,50.7,40.2,17.72,North,353,5.4,8.7,67,0.00,,---,0.00,VWS V14.00,2013-03-16 07:38:00,
2013-03-16 02:44:00,50.7,40.2,17.72,North,357,5.8,6.3,67,0.00,,---,0.00,VWS V14.00,2013-03-16 07:44:00,
2013-03-16 02:49:00,50.5,40.0,17.72,NNW,345,4.0,5.8,67,0.00,,---,0.00,VWS V14.00,2013-03-16 07:49:00,
2013-03-16 02:54:00,50.4,39.8,17.72,North,357,5.4,6.7,67,0.00,,---,0.00,VWS V14.00,2013-03-16 07:54:00,
2013-03-16 02:59:00,50.2,39.7,17.72,North,353,2.7,2.7,67,0.00,,---,0.00,VWS V14.00,2013-03-16 07:59:00,
2013-03-16 03:04:00,50.2,39.7,17.72,North,0,4.0,5.8,67,0.00,,---,0.00,VWS V14.00,2013-03-16 08:04:00,
2013-03-16 03:09:00,50.0,39.1,17.72,NW,325,8.3,8.3,66,0.00,,---,0.00,VWS V14.00,2013-03-16 08:09:00,
2013-03-16 03:14:00,50.0,39.1,17.72,North,0,2.2,2.2,66,0.00,,---,0.00,VWS V14.00,2013-03-16 08:14:00,
2013-03-16 03:19:00,49.8,38.9,17.72,North,357,3.6,4.0,66,0.00,,---,0.00,VWS V14.00,2013-03-16 08:19:00,
2013-03-16 03:24:00,49.6,39.2,17.72,NNE,24,3.1,4.0,67,0.00,,---,0.00,VWS V14.00,2013-03-16 08:24:00,
2013-03-16 03:29:00,49.5,39.0,17.72,North,3,4.0,5.4,67,0.00,,---,0.00,VWS V14.00,2013-03-16 08:29:00,
2013-03-16 03:34:00,49.5,39.0,17.72,North,357,7.6,8.1,67,0.00,,---,0.00,VWS V14.00,2013-03-16 08:34:00,
2013-03-16 03:39:00,49.5,39.0,17.72,North,357,10.5,10.5,67,0.00,,---,0.00,VWS V14.00,2013-03-16 08:39:00,
2013-03-16 03:44:00,49.3,38.4,17.72,North,7,8.1,8.1,66,0.00,,---,0.00,VWS V14.00,2013-03-16 08:44:00,
2013-03-16 03:50:00,49.3,38.4,17.72,NNE,21,5.4,7.6,66,0.00,,---,0.00,VWS V14.00,2013-03-16 08:50:00,
2013-03-16 03:55:00,49.3,38.0,17.72,North,357,5.8,5.8,65,0.00,,---,0.00,VWS V14.00,2013-03-16 08:55:00,
2013-03-16 04:00:00,49.3,38.0,17.72,NNW,345,4.9,9.6,65,0.00,,---,0.00,VWS V14.00,2013-03-16 09:00:00,
2013-03-16 04:05:00,49.3,38.0,17.72,North,357,4.9,6.3,65,0.00,,---,0.00,VWS V14.00,2013-03-16 09:05:00,
2013-03-16 04:10:00,49.1,37.9,17.72,NNW,334,5.4,10.5,65,0.00,,---,0.00,VWS V14.00,2013-03-16 09:10:00,
2013-03-16 04:15:00,49.1,37.9,17.72,NW,313,4.9,4.9,65,0.00,,---,0.00,VWS V14.00,2013-03-16 09:15:00,
2013-03-16 04:20:00,48.9,37.7,17.72,NW,318,2.7,4.0,65,0.00,,---,0.00,VWS V14.00,2013-03-16 09:20:00,
2013-03-16 04:25:00,48.9,37.7,17.72,NNW,336,3.1,3.1,65,0.00,,---,0.00,VWS V14.00,2013-03-16 09:25:00,
2013-03-16 04:30:00,48.9,38.1,17.72,NNE,17,11.0,11.0,66,0.00,,---,0.00,VWS V14.00,2013-03-16 09:30:00,
2013-03-16 04:35:00,48.7,37.5,17.72,NW,317,3.1,4.9,65,0.00,,---,0.00,VWS V14.00,2013-03-16 09:35:00,
2013-03-16 04:40:00,48.7,37.5,17.72,NE,46,5.4,8.7,65,0.00,,---,0.00,VWS V14.00,2013-03-16 09:40:00,
2013-03-16 04:45:00,48.7,37.5,17.72,WNW,288,5.8,5.8,65,0.00,,---,0.00,VWS V14.00,2013-03-16 09:45:00,
2013-03-16 04:50:00,48.6,37.3,17.72,North,0,3.6,4.0,65,0.00,,---,0.00,VWS V14.00,2013-03-16 09:50:00,
2013-03-16 04:55:00,48.4,37.2,17.72,NNE,12,8.7,8.7,65,0.00,,---,0.00,VWS V14.00,2013-03-16 09:55:00,
2013-03-16 05:00:00,48.2,37.4,17.72,NNE,25,8.1,10.1,66,0.00,,---,0.00,VWS V14.00,2013-03-16 10:00:00,
2013-03-16 05:05:00,48.0,37.6,17.72,North,2,3.6,7.6,67,0.00,,---,0.00,VWS V14.00,2013-03-16 10:05:00,
2013-03-16 05:10:00,47.8,37.4,17.72,North,0,2.7,3.1,67,0.00,,---,0.00,VWS V14.00,2013-03-16 10:10:00,
2013-03-16 05:16:00,47.8,37.8,17.72,NNW,339,4.0,8.1,68,0.00,,---,0.00,VWS V14.00,2013-03-16 10:16:00,
2013-03-16 05:21:00,47.7,38.0,17.72,North,357,6.7,6.7,69,0.00,,---,0.00,VWS V14.00,2013-03-16 10:21:00,
2013-03-16 05:26:00,47.3,37.7,17.72,NNW,342,4.5,5.8,69,0.00,,---,0.00,VWS V14.00,2013-03-16 10:26:00,
2013-03-16 05:31:00,47.1,37.8,17.72,North,3,5.8,8.1,70,0.00,,---,0.00,VWS V14.00,2013-03-16 10:31:00,
2013-03-16 05:37:00,46.9,37.7,17.72,NNE,22,4.9,7.6,70,0.00,,---,0.00,VWS V14.00,2013-03-16 10:37:00,
2013-03-16 05:42:00,46.6,37.7,17.72,North,353,4.9,8.7,71,0.00,,---,0.00,VWS V14.00,2013-03-16 10:42:00,
2013-03-16 05:47:00,46.4,37.5,17.72,North,357,6.7,6.7,71,0.00,,---,0.00,VWS V14.00,2013-03-16 10:47:00,
2013-03-16 05:52:00,46.2,37.7,17.72,North,0,4.9,5.8,72,0.00,,---,0.00,VWS V14.00,2013-03-16 10:52:00,
2013-03-16 05:57:00,46.0,37.5,17.72,NNE,23,5.8,8.3,72,0.00,,---,0.00,VWS V14.00,2013-03-16 10:57:00,
2013-03-16 06:02:00,45.7,37.2,17.72,NNW,340,5.4,5.4,72,0.00,,---,0.00,VWS V14.00,2013-03-16 11:02:00,
2013-03-16 06:07:00,45.5,37.0,17.72,North,0,3.6,6.3,72,0.00,,---,0.00,VWS V14.00,2013-03-16 11:07:00,
2013-03-16 06:13:00,45.1,36.3,17.72,North,0,7.6,11.0,71,0.00,,---,0.00,VWS V14.00,2013-03-16 11:13:00,
2013-03-16 06:18:00,44.8,36.0,17.72,North,7,8.7,10.1,71,0.00,,---,0.00,VWS V14.00,2013-03-16 11:18:00,
2013-03-16 06:23:00,44.6,36.2,17.72,North,0,8.3,8.3,72,0.00,,---,0.00,VWS V14.00,2013-03-16 11:23:00,
2013-03-16 06:28:00,44.2,36.2,17.72,North,353,5.8,5.8,73,0.00,,---,0.00,VWS V14.00,2013-03-16 11:28:00,
2013-03-16 06:33:00,43.9,36.1,17.72,NNW,343,5.8,8.3,74,0.00,,---,0.00,VWS V14.00,2013-03-16 11:33:00,
2013-03-16 06:38:00,43.7,36.0,17.72,North,357,5.8,5.8,74,0.00,,---,0.00,VWS V14.00,2013-03-16 11:38:00,
2013-03-16 06:43:00,43.5,36.1,17.72,NNE,15,7.6,8.3,75,0.00,,---,0.00,VWS V14.00,2013-03-16 11:43:00,
2013-03-16 06:48:00,43.5,36.1,17.72,NNW,340,7.2,8.1,75,0.00,,---,0.00,VWS V14.00,2013-03-16 11:48:00,
2013-03-16 06:53:00,43.3,35.6,17.72,NNW,348,6.3,8.7,74,0.00,,---,0.00,VWS V14.00,2013-03-16 11:53:00,
2013-03-16 06:58:00,43.3,35.3,17.72,North,3,4.0,5.8,73,0.00,,---,0.00,VWS V14.00,2013-03-16 11:58:00,
2013-03-16 07:03:00,43.2,34.8,17.72,North,353,7.6,7.6,72,0.00,,---,0.00,VWS V14.00,2013-03-16 12:03:00,
2013-03-16 07:09:00,43.2,34.8,17.72,North,0,6.3,6.3,72,0.00,,---,0.00,VWS V14.00,2013-03-16 12:09:00,
2013-03-16 07:14:00,43.0,34.6,17.72,North,353,7.2,10.1,72,0.00,,---,0.00,VWS V14.00,2013-03-16 12:14:00,
2013-03-16 07:19:00,42.6,33.9,17.72,NNW,341,3.6,8.3,71,0.00,,---,0.00,VWS V14.00,2013-03-16 12:19:00,
2013-03-16 07:24:00,42.4,33.4,17.72,NW,319,4.0,6.7,70,0.00,,---,0.00,VWS V14.00,2013-03-16 12:24:00,
2013-03-16 07:29:00,42.1,32.3,17.72,North,353,3.6,3.6,68,0.00,,---,0.00,VWS V14.00,2013-03-16 12:29:00,
2013-03-16 07:34:00,41.9,31.8,17.72,North,353,3.6,5.8,67,0.00,,---,0.00,VWS V14.00,2013-03-16 12:34:00,
2013-03-16 07:39:00,41.7,30.8,17.72,North,0,3.1,5.8,65,0.00,,---,0.00,VWS V14.00,2013-03-16 12:39:00,
2013-03-16 07:44:00,41.5,29.5,17.72,NNW,338,8.3,10.1,62,0.00,,---,0.00,VWS V14.00,2013-03-16 12:44:00,
2013-03-16 07:49:00,41.4,29.3,17.72,NW,326,10.1,10.1,62,0.00,,---,0.00,VWS V14.00,2013-03-16 12:49:00,
2013-03-16 07:54:00,41.2,29.6,17.72,North,0,3.6,8.1,63,0.00,,---,0.00,VWS V14.00,2013-03-16 12:54:00,
2013-03-16 08:00:00,41.0,29.8,17.72,NNW,327,6.3,9.6,64,0.00,,---,0.00,VWS V14.00,2013-03-16 13:00:00,
2013-03-16 08:05:00,40.8,30.4,17.72,North,5,8.3,8.3,66,0.00,,---,0.00,VWS V14.00,2013-03-16 13:05:00,
2013-03-16 08:10:00,40.6,30.9,17.72,West,278,2.7,4.0,68,0.00,,---,0.00,VWS V14.00,2013-03-16 13:10:00,
2013-03-16 08:15:00,40.6,31.3,17.72,WNW,295,4.9,5.4,69,0.00,,---,0.00,VWS V14.00,2013-03-16 13:15:00,
2013-03-16 08:20:00,40.5,31.1,17.72,North,7,7.6,10.1,69,0.00,,---,0.00,VWS V14.00,2013-03-16 13:20:00,
2013-03-16 08:25:00,40.3,30.6,17.72,North,5,15.9,15.9,68,0.00,,---,0.00,VWS V14.00,2013-03-16 13:25:00,
2013-03-16 08:30:00,39.9,29.1,17.72,North,353,6.3,6.3,65,0.00,,---,0.00,VWS V14.00,2013-03-16 13:30:00,
2013-03-16 08:35:00,39.9,29.1,17.72,NNW,332,6.3,9.6,65,0.00,,---,0.00,VWS V14.00,2013-03-16 13:35:00,
2013-03-16 08:41:00,39.9,29.5,17.72,NW,321,4.9,7.6,66,0.00,,---,0.00,VWS V14.00,2013-03-16 13:41:00,
2013-03-16 08:46:00,39.9,29.5,17.72,WNW,302,4.9,8.3,66,0.00,,---,0.00,VWS V14.00,2013-03-16 13:46:00,
2013-03-16 08:51:00,40.1,30.0,17.72,NNW,332,5.8,8.3,67,0.00,,---,0.00,VWS V14.00,2013-03-16 13:51:00,
2013-03-16 08:56:00,40.3,30.2,17.72,NW,315,10.5,10.5,67,0.00,,---,0.00,VWS V14.00,2013-03-16 13:56:00,
2013-03-16 09:01:00,39.7,28.2,17.72,NW,317,3.1,3.1,63,0.00,,---,0.00,VWS V14.00,2013-03-16 14:01:00,
2013-03-16 09:06:00,39.4,27.9,17.72,NW,325,5.4,5.4,63,0.00,,---,0.00,VWS V14.00,2013-03-16 14:06:00,
2013-03-16 09:11:00,39.4,27.1,17.72,NW,313,5.4,8.7,61,0.00,,---,0.00,VWS V14.00,2013-03-16 14:11:00,
2013-03-16 09:16:00,39.4,27.1,17.72,NW,322,8.1,8.7,61,0.00,,---,0.00,VWS V14.00,2013-03-16 14:16:00,
2013-03-16 09:22:00,39.4,26.7,17.72,NNE,31,7.2,8.7,60,0.00,,---,0.00,VWS V14.00,2013-03-16 14:22:00,
2013-03-16 09:27:00,39.4,26.3,17.72,North,3,4.9,12.3,59,0.00,,---,0.00,VWS V14.00,2013-03-16 14:27:00,
2013-03-16 09:32:00,39.6,26.4,17.72,North,353,7.6,10.1,59,0.00,,---,0.00,VWS V14.00,2013-03-16 14:32:00,
2013-03-16 09:37:00,39.7,27.0,17.72,North,2,5.4,9.6,60,0.00,,---,0.00,VWS V14.00,2013-03-16 14:37:00,
2013-03-16 09:42:00,39.9,26.8,17.72,North,3,10.1,10.1,59,0.00,,---,0.00,VWS V14.00,2013-03-16 14:42:00,
2013-03-16 09:47:00,39.9,26.4,17.72,NNW,331,10.1,10.1,58,0.00,,---,0.00,VWS V14.00,2013-03-16 14:47:00,
2013-03-16 09:52:00,39.9,26.4,17.72,NNW,340,2.7,4.0,58,0.00,,---,0.00,VWS V14.00,2013-03-16 14:52:00,
2013-03-16 09:57:00,40.1,26.1,17.72,NNE,31,8.3,11.0,57,0.00,,---,0.00,VWS V14.00,2013-03-16 14:57:00,
2013-03-16 10:02:00,39.9,25.5,17.72,North,357,10.1,10.5,56,0.00,,---,0.00,VWS V14.00,2013-03-16 15:02:00,
2013-03-16 10:07:00,39.9,25.5,17.72,NNE,25,8.7,10.1,56,0.00,,---,0.00,VWS V14.00,2013-03-16 15:07:00,
2013-03-16 10:12:00,39.9,25.9,17.72,NNE,19,5.8,10.5,57,0.00,,---,0.00,VWS V14.00,2013-03-16 15:12:00,
2013-03-16 10:17:00,40.1,25.7,17.72,North,353,7.2,7.2,56,0.00,,---,0.00,VWS V14.00,2013-03-16 15:17:00,
2013-03-16 10:23:00,40.1,25.7,17.72,WNW,298,3.1,8.7,56,0.00,,---,0.00,VWS V14.00,2013-03-16 15:23:00,
2013-03-16 10:28:00,40.1,25.7,17.72,North,0,8.1,10.5,56,0.00,,---,0.00,VWS V14.00,2013-03-16 15:28:00,
2013-03-16 10:33:00,40.5,25.6,17.72,North,11,15.0,15.0,55,0.00,,---,0.00,VWS V14.00,2013-03-16 15:33:00,
2013-03-16 10:38:00,40.8,25.5,17.72,North,353,10.5,10.5,54,0.00,,---,0.00,VWS V14.00,2013-03-16 15:38:00,
2013-03-16 10:43:00,41.2,25.4,17.72,NNE,18,8.3,8.3,53,0.00,,---,0.00,VWS V14.00,2013-03-16 15:43:00,
2013-03-16 10:48:00,41.4,25.5,17.72,North,357,3.6,11.0,53,0.00,,---,0.00,VWS V14.00,2013-03-16 15:48:00,
2013-03-16 10:53:00,41.7,25.9,17.72,NNW,343,10.5,10.5,53,0.00,,---,0.00,VWS V14.00,2013-03-16 15:53:00,
2013-03-16 10:58:00,42.3,25.9,17.72,NNW,346,8.3,12.3,52,0.00,,---,0.00,VWS V14.00,2013-03-16 15:58:00,
2013-03-16 11:03:00,42.8,25.9,17.72,NNW,343,8.3,8.3,51,0.00,,---,0.00,VWS V14.00,2013-03-16 16:03:00,
2013-03-16 11:08:00,43.0,25.6,17.72,NW,318,4.5,5.8,50,0.00,,---,0.00,VWS V14.00,2013-03-16 16:08:00,
2013-03-16 11:13:00,43.5,26.1,17.72,NNE,17,10.1,10.1,50,0.00,,---,0.00,VWS V14.00,2013-03-16 16:13:00,
2013-03-16 11:18:00,43.7,26.3,17.72,NNW,335,10.5,10.5,50,0.00,,---,0.00,VWS V14.00,2013-03-16 16:18:00,
2013-03-16 11:23:00,44.1,26.6,17.72,North,0,8.1,8.7,50,0.00,,---,0.00,VWS V14.00,2013-03-16 16:23:00,
2013-03-16 11:28:00,44.2,26.3,17.72,NNW,338,5.8,5.8,49,0.00,,---,0.00,VWS V14.00,2013-03-16 16:28:00,
2013-03-16 11:33:00,44.4,26.5,17.72,NNE,15,8.1,12.8,49,0.00,,---,0.00,VWS V14.00,2013-03-16 16:33:00,
2013-03-16 11:38:00,44.6,26.1,17.72,NW,314,4.5,12.3,48,0.00,,---,0.00,VWS V14.00,2013-03-16 16:38:00,
2013-03-16 11:43:00,44.6,26.1,17.72,WNW,293,5.4,7.6,48,0.00,,---,0.00,VWS V14.00,2013-03-16 16:43:00,
2013-03-16 11:48:00,44.6,25.6,17.72,North,2,5.4,5.4,47,0.00,,---,0.00,VWS V14.00,2013-03-16 16:48:00,
2013-03-16 11:53:00,44.2,25.8,17.72,North,0,8.3,10.1,48,0.00,,---,0.00,VWS V14.00,2013-03-16 16:53:00,
2013-03-16 11:58:00,44.2,25.8,17.72,NNW,341,6.3,6.3,48,0.00,,---,0.00,VWS V14.00,2013-03-16 16:58:00,
2013-03-16 12:03:00,44.1,25.6,17.72,NNE,28,5.8,12.8,48,0.00,,---,0.00,VWS V14.00,2013-03-16 17:03:00,
2013-03-16 12:08:00,43.7,25.3,17.72,North,6,5.4,11.0,48,0.00,,---,0.00,VWS V14.00,2013-03-16 17:08:00,
2013-03-16 12:14:00,44.1,26.1,17.72,NNW,342,5.8,5.8,49,0.00,,---,0.00,VWS V14.00,2013-03-16 17:14:00,
2013-03-16 12:19:00,44.4,26.5,17.72,NNE,32,5.8,8.7,49,0.00,,---,0.00,VWS V14.00,2013-03-16 17:19:00,
2013-03-16 12:24:00,44.6,26.1,17.72,NNE,31,5.4,5.8,48,0.00,,---,0.00,VWS V14.00,2013-03-16 17:24:00,
2013-03-16 12:29:00,45.1,26.6,17.72,North,1,5.4,8.3,48,0.00,,---,0.00,VWS V14.00,2013-03-16 17:29:00,
2013-03-16 12:34:00,45.3,26.3,17.72,NNW,335,6.7,7.6,47,0.00,,---,0.00,VWS V14.00,2013-03-16 17:34:00,
2013-03-16 12:39:00,45.9,26.8,17.72,NNW,341,6.3,6.3,47,0.00,,---,0.00,VWS V14.00,2013-03-16 17:39:00,
2013-03-16 12:44:00,46.8,27.6,17.72,North,353,4.0,4.0,47,0.00,,---,0.00,VWS V14.00,2013-03-16 17:44:00,
2013-03-16 12:49:00,47.3,26.5,17.72,NNE,31,5.8,7.2,44,0.00,,---,0.00,VWS V14.00,2013-03-16 17:49:00,
2013-03-16 12:54:00,48.0,27.2,17.72,North,357,6.3,8.1,44,0.00,,---,0.00,VWS V14.00,2013-03-16 17:54:00,
2013-03-16 12:59:00,48.6,26.5,17.72,NNW,340,10.5,10.5,42,0.00,,---,0.00,VWS V14.00,2013-03-16 17:59:00,
2013-03-16 13:04:00,48.7,26.7,17.72,NE,38,10.1,10.5,42,0.00,,---,0.00,VWS V14.00,2013-03-16 18:04:00,
2013-03-16 13:10:00,48.6,26.5,17.72,NNW,343,7.6,7.6,42,0.00,,---,0.00,VWS V14.00,2013-03-16 18:10:00,
2013-03-16 13:15:00,48.4,26.4,17.72,WNW,301,3.1,4.9,42,0.00,,---,0.00,VWS V14.00,2013-03-16 18:15:00,
2013-03-16 13:20:00,48.2,26.2,17.72,NNW,346,5.4,5.4,42,0.00,,---,0.00,VWS V14.00,2013-03-16 18:20:00,
2013-03-16 13:25:00,48.2,26.2,17.72,NNE,21,4.9,8.1,42,0.00,,---,0.00,VWS V14.00,2013-03-16 18:25:00,
2013-03-16 13:30:00,48.0,26.0,17.72,North,357,5.8,8.7,42,0.00,,---,0.00,VWS V14.00,2013-03-16 18:30:00,
2013-03-16 13:35:00,47.8,25.9,17.72,NNW,333,5.4,5.8,42,0.00,,---,0.00,VWS V14.00,2013-03-16 18:35:00,
2013-03-16 13:40:00,47.3,25.4,17.72,NNW,333,8.3,8.7,42,0.00,,---,0.00,VWS V14.00,2013-03-16 18:40:00,
2013-03-16 13:45:00,46.6,24.7,17.72,NNE,19,6.3,9.2,42,0.00,,---,0.00,VWS V14.00,2013-03-16 18:45:00,
2013-03-16 13:50:00,46.6,25.3,17.72,North,4,8.1,8.7,43,0.00,,---,0.00,VWS V14.00,2013-03-16 18:50:00,
2013-03-16 13:55:00,46.8,24.9,17.72,North,0,8.1,10.1,42,0.00,,---,0.00,VWS V14.00,2013-03-16 18:55:00,
2013-03-16 14:00:00,46.8,24.9,17.72,NE,42,8.7,10.1,42,0.00,,---,0.00,VWS V14.00,2013-03-16 19:00:00,
2013-03-16 14:05:00,46.6,24.7,17.72,NNW,338,5.8,10.5,42,0.00,,---,0.00,VWS V14.00,2013-03-16 19:05:00,
2013-03-16 14:11:00,46.9,25.1,17.72,NNW,329,6.3,8.7,42,0.00,,---,0.00,VWS V14.00,2013-03-16 19:11:00,
2013-03-16 14:16:00,46.9,25.1,17.72,NNE,12,6.3,8.1,42,0.00,,---,0.00,VWS V14.00,2013-03-16 19:16:00,
2013-03-16 14:21:00,47.1,25.2,17.72,ENE,74,9.2,10.5,42,0.00,,---,0.00,VWS V14.00,2013-03-16 19:21:00,
2013-03-16 14:26:00,47.3,25.4,17.72,North,0,5.8,8.7,42,0.00,,---,0.00,VWS V14.00,2013-03-16 19:26:00,
2013-03-16 14:31:00,47.3,24.8,17.72,North,4,8.7,8.7,41,0.00,,---,0.00,VWS V14.00,2013-03-16 19:31:00,
2013-03-16 14:36:00,47.1,24.6,17.72,NNE,31,5.4,7.6,41,0.00,,---,0.00,VWS V14.00,2013-03-16 19:36:00,
2013-03-16 14:42:00,46.9,24.5,17.72,North,7,8.3,8.3,41,0.00,,---,0.00,VWS V14.00,2013-03-16 19:42:00,
2013-03-16 14:47:00,46.8,24.9,17.72,North,357,8.3,8.3,42,0.00,,---,0.00,VWS V14.00,2013-03-16 19:47:00,
2013-03-16 14:52:00,46.6,24.7,17.72,NNE,16,8.1,8.1,42,0.00,,---,0.00,VWS V14.00,2013-03-16 19:52:00,
2013-03-16 14:57:00,46.2,24.4,17.72,NNW,333,5.8,7.6,42,0.00,,---,0.00,VWS V14.00,2013-03-16 19:57:00,
2013-03-16 15:02:00,45.9,24.1,17.72,North,353,4.9,5.4,42,0.00,,---,0.00,VWS V14.00,2013-03-16 20:02:00,
2013-03-16 15:07:00,45.5,23.8,17.72,North,7,8.3,8.3,42,0.00,,---,0.00,VWS V14.00,2013-03-16 20:07:00,
2013-03-16 15:12:00,45.5,24.3,17.72,North,1,5.4,12.8,43,0.00,,---,0.00,VWS V14.00,2013-03-16 20:12:00,
2013-03-16 15:17:00,45.5,24.3,17.72,North,357,8.1,14.5,43,0.00,,---,0.00,VWS V14.00,2013-03-16 20:17:00,
2013-03-16 15:23:00,45.5,24.3,17.72,NNW,330,8.7,8.7,43,0.00,,---,0.00,VWS V14.00,2013-03-16 20:23:00,
2013-03-16 15:28:00,45.5,23.8,17.72,NNW,335,3.1,6.3,42,0.00,,---,0.00,VWS V14.00,2013-03-16 20:28:00,
2013-03-16 15:33:00,45.3,24.2,17.72,North,353,8.3,8.3,43,0.00,,---,0.00,VWS V14.00,2013-03-16 20:33:00,
2013-03-16 15:38:00,45.3,24.2,17.72,NNW,343,6.3,7.6,43,0.00,,---,0.00,VWS V14.00,2013-03-16 20:38:00,
2013-03-16 15:43:00,45.3,24.2,17.72,North,357,6.3,6.3,43,0.00,,---,0.00,VWS V14.00,2013-03-16 20:43:00,
2013-03-16 15:48:00,45.7,24.5,17.72,North,7,5.4,5.4,43,0.00,,---,0.00,VWS V14.00,2013-03-16 20:48:00,
2013-03-16 15:53:00,45.9,24.1,17.72,NNE,21,6.3,8.7,42,0.00,,---,0.00,VWS V14.00,2013-03-16 20:53:00,
2013-03-16 15:58:00,46.0,24.2,17.72,North,0,6.3,7.6,42,0.00,,---,0.00,VWS V14.00,2013-03-16 20:58:00,
2013-03-16 16:03:00,46.2,25.0,17.72,NNW,345,8.1,10.1,43,0.00,,---,0.00,VWS V14.00,2013-03-16 21:03:00,
2013-03-16 16:08:00,46.2,24.4,17.72,North,4,6.3,8.1,42,0.00,,---,0.00,VWS V14.00,2013-03-16 21:08:00,
2013-03-16 16:13:00,46.4,24.6,17.72,NNE,25,6.3,6.3,42,0.00,,---,0.00,VWS V14.00,2013-03-16 21:13:00,
2013-03-16 16:19:00,46.4,24.0,17.72,NNW,344,5.4,8.1,41,0.00,,---,0.00,VWS V14.00,2013-03-16 21:19:00,
2013-03-16 16:24:00,46.2,24.4,17.72,NNE,12,11.0,11.0,42,0.00,,---,0.00,VWS V14.00,2013-03-16 21:24:00,
2013-03-16 16:29:00,46.0,24.2,17.72,North,5,5.4,7.6,42,0.00,,---,0.00,VWS V14.00,2013-03-16 21:29:00,
2013-03-16 16:34:00,45.7,23.9,17.72,North,2,8.3,8.7,42,0.00,,---,0.00,VWS V14.00,2013-03-16 21:34:00,
2013-03-16 16:39:00,45.3,23.6,17.72,NNE,32,8.1,8.1,42,0.00,,---,0.00,VWS V14.00,2013-03-16 21:39:00,
2013-03-16 16:44:00,45.0,23.8,17.72,North,357,8.3,8.3,43,0.00,,---,0.00,VWS V14.00,2013-03-16 21:44:00,
2013-03-16 16:49:00,44.8,23.7,17.72,North,4,5.8,8.7,43,0.00,,---,0.00,VWS V14.00,2013-03-16 21:49:00,
2013-03-16 16:54:00,44.6,23.5,17.72,NNE,15,5.8,5.8,43,0.00,,---,0.00,VWS V14.00,2013-03-16 21:54:00,
2013-03-16 16:59:00,44.4,23.9,17.72,NNW,334,8.7,8.7,44,0.00,,---,0.00,VWS V14.00,2013-03-16 21:59:00,
2013-03-16 17:04:00,44.1,23.6,17.72,NNE,16,5.8,7.6,44,0.00,,---,0.00,VWS V14.00,2013-03-16 22:04:00,
2013-03-16 17:09:00,43.7,23.2,17.72,NNW,344,3.6,6.3,44,0.00,,---,0.00,VWS V14.00,2013-03-16 22:09:00,
2013-03-16 17:14:00,43.5,23.6,17.72,NNE,26,12.3,12.8,45,0.00,,---,0.00,VWS V14.00,2013-03-16 22:14:00,
2013-03-16 17:19:00,43.3,23.4,17.72,NNW,336,11.0,11.0,45,0.00,,---,0.00,VWS V14.00,2013-03-16 22:19:00,
2013-03-16 17:24:00,43.2,23.8,17.72,North,357,6.7,8.3,46,0.00,,---,0.00,VWS V14.00,2013-03-16 22:24:00,
2013-03-16 17:30:00,42.8,23.5,17.72,NNW,332,4.9,9.6,46,0.00,,---,0.00,VWS V14.00,2013-03-16 22:30:00,
2013-03-16 17:35:00,42.6,23.8,17.72,North,10,10.1,10.1,47,0.00,,---,0.00,VWS V14.00,2013-03-16 22:35:00,
2013-03-16 17:40:00,42.4,23.6,17.72,NNE,28,5.4,5.4,47,0.00,,---,0.00,VWS V14.00,2013-03-16 22:40:00,
2013-03-16 17:45:00,42.3,23.5,17.72,North,357,6.3,9.6,47,0.00,,---,0.00,VWS V14.00,2013-03-16 22:45:00,
2013-03-16 17:50:00,42.3,23.0,17.72,North,0,4.9,10.5,46,0.00,,---,0.00,VWS V14.00,2013-03-16 22:50:00,
2013-03-16 17:55:00,42.1,23.3,17.72,NNW,332,4.9,7.6,47,0.00,,---,0.00,VWS V14.00,2013-03-16 22:55:00,
2013-03-16 18:00:00,42.1,23.3,17.72,North,357,5.4,8.3,47,0.00,,---,0.00,VWS V14.00,2013-03-16 23:00:00,
2013-03-16 18:05:00,41.7,23.0,17.72,North,0,11.0,11.0,47,0.00,,---,0.00,VWS V14.00,2013-03-16 23:05:00,
2013-03-16 18:10:00,41.7,23.0,17.72,North,5,4.9,5.8,47,0.00,,---,0.00,VWS V14.00,2013-03-16 23:10:00,
2013-03-16 18:15:00,41.5,22.8,17.72,NNE,29,6.3,10.1,47,0.00,,---,0.00,VWS V14.00,2013-03-16 23:15:00,
2013-03-16 18:20:00,41.4,22.7,17.72,NNE,25,4.0,8.7,47,0.00,,---,0.00,VWS V14.00,2013-03-16 23:20:00,
2013-03-16 18:26:00,41.2,23.0,17.72,NNE,23,5.8,6.3,48,0.00,,---,0.00,VWS V14.00,2013-03-16 23:26:00,
2013-03-16 18:31:00,41.2,23.0,17.72,NW,315,8.7,8.7,48,0.00,,---,0.00,VWS V14.00,2013-03-16 23:31:00,
2013-03-16 18:36:00,41.0,22.8,17.72,North,0,8.3,8.3,48,0.00,,---,0.00,VWS V14.00,2013-03-16 23:36:00,
2013-03-16 18:41:00,40.8,23.1,17.72,NNE,16,5.8,8.7,49,0.00,,---,0.00,VWS V14.00,2013-03-16 23:41:00,
2013-03-16 18:46:00,40.6,23.0,17.72,North,357,5.8,5.8,49,0.00,,---,0.00,VWS V14.00,2013-03-16 23:46:00,
2013-03-16 18:51:00,40.5,22.8,17.72,NNW,332,6.7,8.3,49,0.00,,---,0.00,VWS V14.00,2013-03-16 23:51:00,
2013-03-16 18:56:00,40.1,22.5,17.72,NNW,328,8.3,8.7,49,0.00,,---,0.00,VWS V14.00,2013-03-16 23:56:00,
2013-03-16 19:01:00,39.9,22.8,17.72,North,4,4.0,5.8,50,0.00,,---,0.00,VWS V14.00,2013-03-17 00:01:00,
2013-03-16 19:06:00,39.6,22.5,17.72,North,0,5.4,9.2,50,0.00,,---,0.00,VWS V14.00,2013-03-17 00:06:00,
2013-03-16 19:11:00,39.4,22.3,17.72,North,357,3.6,7.6,50,0.00,,---,0.00,VWS V14.00,2013-03-17 00:11:00,
2013-03-16 19:16:00,39.0,22.4,17.72,North,357,8.7,8.7,51,0.00,,---,0.00,VWS V14.00,2013-03-17 00:16:00,
2013-03-16 19:21:00,38.8,22.3,17.72,NW,326,4.0,8.1,51,0.00,,---,0.00,VWS V14.00,2013-03-17 00:21:00,
2013-03-16 19:27:00,38.7,22.6,17.72,NW,312,5.8,8.3,52,0.00,,---,0.00,VWS V14.00,2013-03-17 00:27:00,
2013-03-16 19:32:00,38.5,22.4,17.72,North,357,5.4,6.3,52,0.00,,---,0.00,VWS V14.00,2013-03-17 00:32:00,
2013-03-16 19:37:00,38.1,22.1,17.72,NNE,28,8.3,8.3,52,0.00,,---,0.00,VWS V14.00,2013-03-17 00:37:00,
2013-03-16 19:42:00,37.9,21.9,17.72,NW,320,10.1,10.1,52,0.00,,---,0.00,VWS V14.00,2013-03-17 00:42:00,
2013-03-16 19:47:00,37.6,22.0,17.72,North,0,6.3,10.5,53,0.00,,---,0.00,VWS V14.00,2013-03-17 00:47:00,
2013-03-16 19:52:00,37.4,21.9,17.72,NNW,340,5.8,7.6,53,0.00,,---,0.00,VWS V14.00,2013-03-17 00:52:00,
2013-03-16 19:57:00,37.2,22.1,17.72,NNE,25,6.3,7.6,54,0.00,,---,0.00,VWS V14.00,2013-03-17 00:57:00,
2013-03-16 20:02:00,37.0,22.4,17.72,North,349,4.0,7.6,55,0.00,,---,0.00,VWS V14.00,2013-03-17 01:02:00,
2013-03-16 20:07:00,37.0,22.4,17.72,North,353,6.3,11.9,55,0.00,,---,0.00,VWS V14.00,2013-03-17 01:07:00,
2013-03-16 20:13:00,36.9,22.2,17.72,North,353,6.3,8.3,55,0.00,,---,0.00,VWS V14.00,2013-03-17 01:13:00,
2013-03-16 20:18:00,36.7,22.5,17.72,NNW,341,5.8,12.8,56,0.00,,---,0.00,VWS V14.00,2013-03-17 01:18:00,
2013-03-16 20:23:00,36.7,22.5,17.72,North,0,8.3,8.3,56,0.00,,---,0.00,VWS V14.00,2013-03-17 01:23:00,
2013-03-16 20:28:00,36.7,22.5,17.72,NNW,345,6.7,6.7,56,0.00,,---,0.00,VWS V14.00,2013-03-17 01:28:00,
2013-03-16 20:33:00,36.7,22.5,17.72,NE,36,8.1,8.1,56,0.00,,---,0.00,VWS V14.00,2013-03-17 01:33:00,
2013-03-16 20:38:00,36.7,22.5,17.72,NNE,24,10.1,10.1,56,0.00,,---,0.00,VWS V14.00,2013-03-17 01:38:00,
2013-03-16 20:43:00,36.5,22.3,17.72,North,0,8.1,8.3,56,0.00,,---,0.00,VWS V14.00,2013-03-17 01:43:00,
2013-03-16 20:48:00,36.5,22.7,17.72,NNE,21,7.6,10.5,57,0.00,,---,0.00,VWS V14.00,2013-03-17 01:48:00,
2013-03-16 20:54:00,36.3,22.6,17.72,NNW,334,4.9,8.3,57,0.00,,---,0.00,VWS V14.00,2013-03-17 01:54:00,
2013-03-16 20:59:00,36.3,22.6,17.72,North,0,3.1,12.3,57,0.00,,---,0.00,VWS V14.00,2013-03-17 01:59:00,
2013-03-16 21:04:00,36.1,22.4,17.72,NE,55,7.2,8.3,57,0.00,,---,0.00,VWS V14.00,2013-03-17 02:04:00,
2013-03-16 21:09:00,36.1,22.4,17.72,North,357,5.8,5.8,57,0.00,,---,0.00,VWS V14.00,2013-03-17 02:09:00,
2013-03-16 21:14:00,36.1,22.8,17.72,NNE,21,8.7,8.7,58,0.00,,---,0.00,VWS V14.00,2013-03-17 02:14:00,
2013-03-16 21:19:00,36.1,22.8,17.72,NNW,338,5.8,7.6,58,0.00,,---,0.00,VWS V14.00,2013-03-17 02:19:00,
2013-03-16 21:24:00,36.0,22.6,17.72,WNW,296,3.6,6.3,58,0.00,,---,0.00,VWS V14.00,2013-03-17 02:24:00,
2013-03-16 21:29:00,35.8,22.5,17.72,North,2,4.0,6.3,58,0.00,,---,0.00,VWS V14.00,2013-03-17 02:29:00,
2013-03-16 21:35:00,35.8,22.5,17.72,North,353,5.8,10.1,58,0.00,,---,0.00,VWS V14.00,2013-03-17 02:35:00,
2013-03-16 21:40:00,35.8,22.5,17.72,NNW,345,3.1,5.4,58,0.00,,---,0.00,VWS V14.00,2013-03-17 02:40:00,
2013-03-16 21:45:00,35.8,22.9,17.72,NNW,330,4.9,8.1,59,0.00,,---,0.00,VWS V14.00,2013-03-17 02:45:00,
2013-03-16 21:50:00,35.6,22.7,17.72,North,353,8.7,9.6,59,0.00,,---,0.00,VWS V14.00,2013-03-17 02:50:00,
2013-03-16 21:55:00,35.6,22.7,17.72,NNW,331,8.1,10.5,59,0.00,,---,0.00,VWS V14.00,2013-03-17 02:55:00,
2013-03-16 22:00:00,35.6,22.7,17.72,North,353,4.0,8.7,59,0.00,,---,0.00,VWS V14.00,2013-03-17 03:00:00,
2013-03-16 22:05:00,35.6,22.7,17.72,North,0,8.1,8.1,59,0.00,,---,0.00,VWS V14.00,2013-03-17 03:05:00,
2013-03-16 22:10:00,35.6,22.7,17.72,North,0,3.6,4.9,59,0.00,,---,0.00,VWS V14.00,2013-03-17 03:10:00,
2013-03-16 22:15:00,35.4,22.5,17.72,NNE,19,6.3,6.3,59,0.00,,---,0.00,VWS V14.00,2013-03-17 03:15:00,
2013-03-16 22:20:00,35.4,22.5,17.72,North,357,8.1,8.1,59,0.00,,---,0.00,VWS V14.00,2013-03-17 03:20:00,
2013-03-16 22:25:00,35.4,22.5,17.72,NNW,346,10.1,10.1,59,0.00,,---,0.00,VWS V14.00,2013-03-17 03:25:00,
2013-03-16 22:30:00,35.2,22.8,17.72,North,7,9.6,9.6,60,0.00,,---,0.00,VWS V14.00,2013-03-17 03:30:00,
2013-03-16 22:35:00,35.2,22.8,17.72,North,350,10.1,10.1,60,0.00,,---,0.00,VWS V14.00,2013-03-17 03:35:00,
2013-03-16 22:40:00,35.1,22.6,17.72,North,0,6.3,7.6,60,0.00,,---,0.00,VWS V14.00,2013-03-17 03:40:00,
2013-03-16 22:45:00,35.1,22.6,17.72,NNE,28,7.2,11.0,60,0.00,,---,0.00,VWS V14.00,2013-03-17 03:45:00,
2013-03-16 22:52:00,35.1,23.0,17.72,NNE,12,5.4,5.4,61,0.00,,---,0.00,VWS V14.00,2013-03-17 03:52:00,
2013-03-16 22:57:00,34.9,23.2,17.72,NNE,14,8.1,10.1,62,0.00,,---,0.00,VWS V14.00,2013-03-17 03:57:00,
2013-03-16 23:00:00,34.9,23.2,17.72,North,5,7.6,8.1,62,0.00,,---,0.00,VWS V14.00,2013-03-17 04:00:00,
2013-03-16 23:01:00,34.9,23.2,17.72,NNE,15,5.4,8.1,62,0.00,,---,0.00,VWS V14.00,2013-03-17 04:01:00,
2013-03-16 23:06:00,34.9,23.6,17.72,NNW,338,5.4,6.3,63,0.00,,---,0.00,VWS V14.00,2013-03-17 04:06:00,
2013-03-16 23:11:00,34.9,23.6,17.72,NW,324,8.7,10.5,63,0.00,,---,0.00,VWS V14.00,2013-03-17 04:11:00,
2013-03-16 23:17:00,34.7,23.8,17.72,NNE,28,8.3,10.1,64,0.00,,---,0.00,VWS V14.00,2013-03-17 04:17:00,
2013-03-16 23:22:00,34.5,24.0,17.72,North,357,6.3,13.6,65,0.00,,---,0.00,VWS V14.00,2013-03-17 04:22:00,
2013-03-16 23:27:00,34.5,24.0,17.72,North,357,5.8,7.6,65,0.00,,---,0.00,VWS V14.00,2013-03-17 04:27:00,
2013-03-16 23:32:00,34.3,24.2,17.72,North,353,8.1,13.2,66,0.00,,---,0.00,VWS V14.00,2013-03-17 04:32:00,
2013-03-16 23:37:00,34.3,24.2,17.72,NNE,12,7.6,7.6,66,0.00,,---,0.00,VWS V14.00,2013-03-17 04:37:00,
2013-03-16 23:42:00,34.2,24.4,17.72,NNE,15,7.6,7.6,67,0.00,,---,0.00,VWS V14.00,2013-03-17 04:42:00,
2013-03-16 23:47:00,34.0,24.2,17.72,North,7,8.7,8.7,67,0.00,,---,0.00,VWS V14.00,2013-03-17 04:47:00,
2013-03-16 23:52:00,34.0,24.2,17.72,NNE,28,10.5,10.5,67,0.00,,---,0.00,VWS V14.00,2013-03-17 04:52:00,
2013-03-16 23:58:00,34.0,24.2,17.72,NNE,27,8.3,8.7,67,0.00,,---,0.00,VWS V14.00,2013-03-17 04:58:00,